Location: Taupo
(38.6830°S, 176.0830°E)
Time: 03:32:23
(UTC+13:00)

Cosmos 1151 Rocket - Pass Details

Date: 24 January 2019
Orbit: 591 x 617 km, 82.5° (Epoch: 21 February)

Event Time Altitude Azimuth Distance (km) Brightness Sun altitude
Rises 21:48:31 0° 351° (N) 2,822 6.2 -12.7°
Reaches altitude 10° 21:50:42 10° 350° (N) 1,931 5.3 -13.0°
Maximum altitude 21:54:58 80° 263° (W) 619 3.1 -13.6°
Drops below altitude 10° 21:59:20 10° 175° (S) 1,972 6.1 -14.3°
Sets 22:01:35 0° 173° (S) 2,888 7.0 -14.6°
